Вернуться в каталог

STARLINK-37755

АктивенСвязьSSO
NORAD 69234·PAYLOAD·🇺🇸 United States

Запущен May 26, 2026 с Vandenberg Space Force Base

Loading…

Ближайшие Пролёты (ближайшие 24 часа)

TLE

СвежийSource: CelesTrak SupGP

Эпоха: Sep 15, 2026, 04:18 UTC

1 69234C 26115Z   26258.17965278 -.00067002  00000+0 -20803-2 0  2586
2 69234  97.2834 275.1882 0001350  89.8284 147.1376 15.33467324    18

Отслеживайте STARLINK-37755 в реальном времени с AllMySat

Download on the App Store